Station PTAW1 - 9444090 - Port Angeles, WA Image indicating link to RSS feed of recent meteorological observations for station PTAW1


Conditions at PTAW1 as of
(10:36 pm PDT on 04/18/2024)
0536 GMT on 04/19/2024:
     

Click on the graph icon in the table below to see a time series plot of the last five days of that observation.

5-day plot - Atmospheric Pressure Atmospheric Pressure (PRES):30.26 in
5-day plot - Air Temperature Air Temperature (ATMP): 48.2 °F
5-day plot - Water Temperature Water Temperature (WTMP): 49.3 °F
5-day plot - Wind Chill Wind Chill (CHILL): 45.3 °F
5-day plot - Wind Speed at 10 Meters Wind Speed at 10 meters (WSPD10M): 5.8 kts
5-day plot - Wind Speed at 20 Meters Wind Speed at 20 meters (WSPD20M): 5.8 kts
NOS Water Level Observation Network Water Level
Previous observations
TIME
(PDT)
5-day plot - Wind Direction
WDIR
 
5-day plot - Wind Speed
WSPD
kts
5-day plot - Wind Gust
GST
kts
5-day plot - Wave Height
WVHT
ft
5-day plot - Dominant Wave Period
DPD
sec
5-day plot - Average Wave Period
APD
sec
5-day plot - Mean Wave Direction
MWD
 
5-day plot - Atmospheric Pressure
PRES
in
5-day plot - Pressure Tendency
PTDY
in
5-day plot - Air Temperature
ATMP
°F
5-day plot - Water Temperature
WTMP
°F
5-day plot - Dew Point
DEWP
°F
5-day plot - Salinity
SAL
psu
5-day plot - Visibility
VIS
nmi
5-day plot - Tide (above MLLW)
TIDE
ft
2024-04-18 10:30 pm-------30.26- 48.6 49.3----
2024-04-18 10:24 pmSSW 6.0 8.0----30.26- 48.4 49.3----
2024-04-18 10:18 pmSSW 5.1 7.0----30.26- 48.7 49.3----
2024-04-18 10:12 pm S 5.1 7.0----30.26- 48.9 49.3----
2024-04-18 10:06 pm S 5.1 7.0----30.26- 49.1 49.3----
2024-04-18 10:00 pm S 5.1 8.0----30.26+0.00 49.3 49.3----
2024-04-18 09:54 pmSSW 5.1 7.0----30.26- 49.5 49.3----
2024-04-18 09:48 pmSSW 6.0 7.0----30.26- 49.6 49.5----
2024-04-18 09:42 pmSSW 6.0 8.0----30.26- 49.6 49.5----
2024-04-18 09:36 pm-------30.26- 49.8 49.5----
2024-04-18 09:30 pm-------30.26- 50.0 49.5----
2024-04-18 09:24 pm S 6.0 8.0----30.26- 50.2 49.5----
2024-04-18 09:18 pm S 6.0 7.0----30.26- 50.4 49.5----
2024-04-18 09:12 pm S 6.0 7.0----30.26- 50.7 49.5----
2024-04-18 09:06 pm S 6.0 8.0----30.25- 50.9 49.5----
2024-04-18 09:00 pmSSW 6.0 8.0----30.25-0.01 51.4 49.5----
2024-04-18 08:54 pmSSW 6.0 7.0----30.25- 50.7 49.5----
2024-04-18 08:48 pm S 5.1 6.0----30.25- 50.2 49.5----
2024-04-18 08:42 pm S 2.9 5.1----30.25- 50.5 49.6----
2024-04-18 08:36 pm-------30.25- 51.1 49.6----
2024-04-18 08:30 pm-------30.25- 51.8 49.6----
2024-04-18 08:24 pm S 4.1 5.1----30.25- 52.3 49.6----
2024-04-18 08:18 pm S 4.1 5.1----30.25- 53.2 49.6----
2024-04-18 08:12 pm S 4.1 5.1----30.25- 53.6 49.6----
2024-04-18 08:06 pm S 4.1 5.1----30.25- 54.7 49.6----
2024-04-18 08:00 pm S 2.9 5.1----30.25-0.03 55.9 49.6----
2024-04-18 07:54 pmSSE 4.1 5.1----30.25- 57.7 49.6----
2024-04-18 07:48 pmSSE 2.9 6.0----30.25- 58.1 49.6----
2024-04-18 07:42 pm SE 4.1 6.0----30.25- 58.1 49.6----
2024-04-18 07:36 pm-------30.25- 58.1 49.6----
2024-04-18 07:30 pm-------30.26- 58.3 49.6----
2024-04-18 07:24 pm SE 4.1 6.0----30.26- 58.3 49.6----
2024-04-18 07:18 pm SE 5.1 6.0----30.26- 58.3 49.6----
2024-04-18 07:12 pm SE 5.1 5.1----30.26- 58.5 49.6----
2024-04-18 07:06 pm SE 4.1 5.1----30.26- 58.3 49.6----
2024-04-18 07:00 pm SE 5.1 6.0----30.26-0.03 58.3 49.6----
2024-04-18 06:54 pm SE 5.1 5.1----30.26- 58.5 49.6----
2024-04-18 06:48 pm SE 4.1 5.1----30.26- 58.5 49.6----
2024-04-18 06:42 pm SE 4.1 5.1----30.26- 58.6 49.6----
2024-04-18 06:36 pm-------30.26- 58.6 49.6----
2024-04-18 06:30 pm-------30.26- 58.3 49.6----
2024-04-18 06:24 pmESE 5.1 5.1----30.27- 57.9 49.6----
2024-04-18 06:18 pmESE 5.1 5.1----30.27- 57.6 49.6----
2024-04-18 06:12 pmESE 2.9 4.1----30.27- 58.1 49.6----
2024-04-18 06:06 pmESE 4.1 4.1----30.27- 58.3 49.5----
2024-04-18 06:00 pmESE 2.9 5.1----30.27-0.04 58.1 49.5----
2024-04-18 05:54 pmESE 2.9 4.1----30.27- 57.7 49.5----
2024-04-18 05:48 pmESE 4.1 4.1----30.27- 58.1 49.5----
2024-04-18 05:42 pm E 2.9 5.1----30.27- 57.7 49.3----
2024-04-18 05:36 pm-------30.27- 57.6 49.1----
2024-04-18 05:30 pm-------30.27- 57.6 49.1----
2024-04-18 05:24 pmESE 4.1 4.1----30.27- 57.7 49.1----
2024-04-18 05:18 pmESE 4.1 4.1----30.27- 58.6 49.1----
2024-04-18 05:12 pmESE 4.1 4.1----30.28- 57.9 49.1----
2024-04-18 05:06 pmESE 2.9 4.1----30.28- 58.6 49.1----
2024-04-18 05:00 pmESE 4.1 5.1----30.28-0.05 57.9 49.1----
2024-04-18 04:54 pmESE 4.1 5.1----30.28- 57.4 49.3----
2024-04-18 04:48 pmESE 4.1 5.1----30.28- 57.9 49.5----
2024-04-18 04:42 pmESE 4.1 4.1----30.28- 58.3 49.5----
2024-04-18 04:36 pm-------30.29- 58.1 49.6----
2024-04-18 04:30 pm-------30.29- 57.0 49.6----
2024-04-18 04:24 pmESE 4.1 4.1----30.29- 57.0 49.6----
2024-04-18 04:18 pmESE 4.1 4.1----30.29- 56.7 49.5----
2024-04-18 04:12 pmESE 4.1 5.1----30.29- 55.8 49.5----
2024-04-18 04:06 pmESE 4.1 4.1----30.29- 55.8 49.5----
2024-04-18 04:00 pmESE 4.1 4.1----30.29-0.05 55.4 49.5----
2024-04-18 03:54 pmESE 4.1 4.1----30.29- 55.4 49.5----
2024-04-18 03:48 pmESE 4.1 4.1----30.30- 55.4 49.5----
2024-04-18 03:42 pmESE 2.9 4.1----30.30- 55.8 49.6----
2024-04-18 03:36 pm-------30.30- 55.9 49.6----
2024-04-18 03:30 pm-------30.30- 55.9 49.6----
2024-04-18 03:24 pmESE 1.9 2.9----30.30- 55.8 49.6----
2024-04-18 03:18 pmESE 1.9 1.9----30.31- 56.5 49.6----
2024-04-18 03:12 pmNNE 1.9 2.9----30.31- 55.0 49.6----
2024-04-18 03:06 pmNNE 1.9 2.9----30.31- 55.2 49.6----
2024-04-18 03:00 pm NE 2.9 2.9----30.31-0.04 54.7 49.6----
2024-04-18 02:54 pm NE 1.9 2.9----30.31- 54.9 49.5----
2024-04-18 02:48 pm E 1.9 2.9----30.32- 53.4 49.5----
2024-04-18 02:42 pm NE 1.9 2.9----30.32- 53.2 49.5----
2024-04-18 02:36 pm-------30.32- 52.7 49.5----
2024-04-18 02:30 pm-------30.32- 53.4 49.5----
2024-04-18 02:24 pm E 1.0 2.9----30.32- 53.2 49.5----
2024-04-18 02:18 pmESE 1.9 2.9----30.32- 53.2 49.5----
2024-04-18 02:12 pmESE 2.9 2.9----30.32- 53.2 49.5----
2024-04-18 02:06 pmESE 2.9 2.9----30.32- 53.1 49.5----
2024-04-18 02:00 pmESE 2.9 4.1----30.33-0.05 52.9 49.5----
2024-04-18 01:54 pmESE 2.9 4.1----30.33- 52.7 49.5----
2024-04-18 01:48 pmESE 2.9 4.1----30.33- 52.2 49.5----
2024-04-18 01:42 pmESE 4.1 4.1----30.33- 52.0 49.5----
2024-04-18 01:36 pm-------30.33- 51.6 49.5----
2024-04-18 01:30 pm-------30.33- 51.4 49.5----
2024-04-18 01:24 pmESE 2.9 4.1----30.34- 51.6 49.5----
2024-04-18 01:18 pmENE 1.9 2.9----30.34- 52.2 49.5----
2024-04-18 01:12 pmENE 1.9 4.1----30.34- 51.4 49.5----
2024-04-18 01:06 pmENE 2.9 4.1----30.34- 51.8 49.5----
2024-04-18 01:00 pm NE 2.9 5.1----30.34-0.04 51.3 49.5----
2024-04-18 12:54 pm NE 4.1 5.1----30.34- 51.3 49.5----
2024-04-18 12:48 pm E 2.9 4.1----30.34- 52.2 49.5----
2024-04-18 12:42 pm E 1.9 4.1----30.34- 53.1 49.5----
2024-04-18 12:36 pm-------30.35- 51.1 49.5----
2024-04-18 12:30 pm-------30.35- 50.9 49.6----
2024-04-18 12:24 pmENE 2.9 5.1----30.35- 51.3 49.6----
2024-04-18 12:18 pmENE 1.9 4.1----30.35- 50.5 49.6----
2024-04-18 12:12 pm NE 4.1 6.0----30.35- 50.7 49.6----
2024-04-18 12:06 pmENE 2.9 5.1----30.35- 50.9 49.5----
2024-04-18 12:00 pm E 2.9 5.1----30.36-0.04 51.1 49.5----
2024-04-18 11:54 am E 1.9 5.1----30.36- 51.8 49.5----
2024-04-18 11:48 am E 1.9 4.1----30.36- 51.8 49.3----
2024-04-18 11:42 amESE 2.9 2.9----30.36- 50.9 49.1----
2024-04-18 11:36 am-------30.37- 51.1 49.1----
2024-04-18 11:30 am-------30.37- 51.1 49.1----
2024-04-18 11:24 amESE 2.9 4.1----30.37- 50.9 49.1----
2024-04-18 11:18 amESE 2.9 5.1----30.37- 50.4 48.9----
2024-04-18 11:12 am E 2.9 4.1----30.37- 50.9 48.9----
2024-04-18 11:06 am E 1.9 4.1----30.37- 50.7 48.9----
2024-04-18 11:00 am E 2.9 4.1----30.37-0.02 50.4 48.9----
2024-04-18 10:54 amESE 4.1 5.1----30.37- 50.4 48.9----
2024-04-18 10:48 amESE 2.9 4.1----30.38- 50.4 48.9----
2024-04-18 10:42 amESE 4.1 4.1----30.38- 50.4 48.7----
2024-04-18 10:36 am-------30.38- 50.4 48.7----
2024-04-18 10:30 am-------30.38- 50.2 48.7----
2024-04-18 10:24 amESE 4.1 5.1----30.38- 49.8 48.7----
2024-04-18 10:18 amESE 4.1 6.0----30.38- 50.2 48.7----
2024-04-18 10:12 amESE 4.1 6.0----30.38- 50.4 48.7----
2024-04-18 10:06 amESE 4.1 5.1----30.38- 50.4 48.7----
2024-04-18 10:00 amESE 4.1 5.1----30.39+0.00 50.2 48.7----
2024-04-18 09:54 amESE 2.9 5.1----30.39- 50.4 48.7----
2024-04-18 09:48 am SE 4.1 5.1----30.39- 51.1 48.7----
2024-04-18 09:42 amESE 2.9 5.1----30.39- 51.3 48.7----
2024-04-18 09:36 am-------30.39- 52.7 48.7----
2024-04-18 09:30 am-------30.39- 50.9 48.7----
2024-04-18 09:24 am- 0.0 1.9----30.39- 50.7 48.7----
2024-04-18 09:18 amENE 1.9 4.1----30.39- 50.2 48.6----
2024-04-18 09:12 amESE 2.9 4.1----30.39- 50.4 48.6----
2024-04-18 09:06 amESE 2.9 4.1----30.39- 50.4 48.6----
2024-04-18 09:00 amESE 1.9 2.9----30.40+0.02 51.6 48.6----
2024-04-18 08:54 amESE 1.9 4.1----30.40- 50.4 48.6----
2024-04-18 08:48 am NE 1.9 2.9----30.40- 53.1 48.6----
2024-04-18 08:42 amESE 1.0 1.9----30.40- 51.3 48.6----
2024-04-18 08:36 am-------30.40- 52.9 48.6----
2024-04-18 08:30 am-------30.40- 52.0 48.6----
2024-04-18 08:24 am- 0.0 1.9----30.40- 54.7 48.6----
2024-04-18 08:18 am- 0.0 1.0----30.40- 52.5 48.6----
2024-04-18 08:12 am- 0.0 1.9----30.40- 52.0 48.6----
2024-04-18 08:06 am- 0.0 1.9----30.40- 50.5 48.6----
2024-04-18 08:00 am S 1.9 6.0----30.40+0.00 48.9 48.6----
2024-04-18 07:54 am SW 5.1 6.0----30.40- 46.4 48.6----
2024-04-18 07:48 amSSW 2.9 6.0----30.40- 45.5 48.6----
2024-04-18 07:42 amSSW 6.0 6.0----30.40- 45.3 48.6----
2024-04-18 07:36 am-------30.40- 45.0 48.6----
2024-04-18 07:30 am-------30.40- 44.2 48.6----
2024-04-18 07:24 am SW 7.0 8.9----30.40- 43.5 48.6----
2024-04-18 07:18 amSSW 8.9 9.9----30.40- 42.4 48.6----
2024-04-18 07:12 amSSW 8.0 8.9----30.39- 41.9 48.6----
2024-04-18 07:06 am S 4.1 5.1----30.39- 40.8 48.6----
2024-04-18 07:00 am S 2.9 4.1----30.39+0.00 39.7 48.6----
2024-04-18 06:54 am S 4.1 5.1----30.39- 39.4 48.6----
2024-04-18 06:48 am S 2.9 4.1----30.39- 38.5 48.6----
2024-04-18 06:42 am S 2.9 6.0----30.39- 38.1 48.6----
2024-04-18 06:36 am-------30.39- 38.3 48.6----
2024-04-18 06:30 am-------30.38- 37.2 48.6----
2024-04-18 06:24 am S 4.1 4.1----30.38- 37.9 48.7----
2024-04-18 06:18 am S 4.1 5.1----30.38- 38.8 48.7----
2024-04-18 06:12 amSSW 4.1 5.1----30.38- 39.9 48.7----
2024-04-18 06:06 am W 4.1 8.9----30.38- 39.6 48.6----
2024-04-18 06:00 am SW 8.0 9.9----30.37-0.02 39.6 48.6----
2024-04-18 05:54 am SW 8.9 11.1----30.38- 39.7 48.6----
2024-04-18 05:48 am SW 8.9 11.1----30.38- 39.6 48.6----
2024-04-18 05:42 am SW 8.9 11.1----30.38- 39.0 48.6----
2024-04-18 05:36 am-------30.38- 38.7 48.6----
2024-04-18 05:30 am-------30.38- 38.1 48.7----
2024-04-18 05:24 am SW 8.9 9.9----30.38- 37.9 48.7----
2024-04-18 05:18 amSSW 7.0 8.9----30.39- 37.8 48.7----
2024-04-18 05:12 amSSW 8.0 8.9----30.39- 37.9 48.7----
2024-04-18 05:06 amSSW 7.0 8.0----30.39- 37.8 48.7----
2024-04-18 05:00 amSSW 7.0 8.9----30.39-0.01 37.4 48.7----
2024-04-18 04:54 amSSW 7.0 8.0----30.39- 37.4 48.7----
2024-04-18 04:48 amSSW 7.0 8.0----30.39- 37.4 48.7----
2024-04-18 04:42 amSSW 5.1 6.0----30.39- 37.4 48.7----
2024-04-18 04:36 am-------30.40- 37.4 48.7----
2024-04-18 04:30 am-------30.39- 36.5 48.7----
2024-04-18 04:24 amSSW 5.1 5.1----30.39- 36.5 48.7----
2024-04-18 04:18 am S 2.9 4.1----30.39- 36.9 48.7----
2024-04-18 04:12 am S 2.9 4.1----30.39- 38.1 48.7----
2024-04-18 04:06 am S 4.1 5.1----30.40- 38.7 48.7----
2024-04-18 04:00 am S 4.1 5.1----30.39-0.02 39.2 48.7----
2024-04-18 03:54 amSSW 5.1 5.1----30.39- 39.4 48.7----
2024-04-18 03:48 am SW 4.1 5.1----30.39- 39.7 48.7----
2024-04-18 03:42 amSSW 5.1 6.0----30.39- 39.6 48.7----
2024-04-18 03:36 am-------30.39- 39.7 48.7----
2024-04-18 03:30 am-------30.39- 39.6 48.7----
2024-04-18 03:24 am S 1.9 2.9----30.39- 39.6 48.7----
2024-04-18 03:18 am S 2.9 5.1----30.40- 39.2 48.7----
2024-04-18 03:12 amSSW 5.1 7.0----30.40- 38.8 48.7----
2024-04-18 03:06 am S 4.1 5.1----30.40- 39.0 48.7----
2024-04-18 03:00 amSSW 1.9 2.9----30.40-0.03 39.0 48.7----
2024-04-18 02:54 amSSW 1.0 2.9----30.40- 39.0 48.7----
2024-04-18 02:48 amSSW 2.9 2.9----30.40- 38.5 48.7----
2024-04-18 02:42 amSSW 1.9 2.9----30.40- 38.5 48.7----
2024-04-18 02:36 am-------30.40- 38.3 48.7----
2024-04-18 02:30 am-------30.40- 38.5 48.9----
2024-04-18 02:24 amSSW 2.9 2.9----30.40- 39.0 48.9----
2024-04-18 02:18 amSSE 1.9 4.1----30.40- 38.3 48.9----
2024-04-18 02:12 amSSW 2.9 4.1----30.40- 39.0 48.9----
2024-04-18 02:06 am S 4.1 5.1----30.40- 39.0 48.9----
2024-04-18 02:00 am S 4.1 5.1----30.40-0.02 38.8 48.9----
2024-04-18 01:54 am S 4.1 4.1----30.40- 38.7 48.9----
2024-04-18 01:48 am S 2.9 4.1----30.40- 38.3 49.1----
2024-04-18 01:42 am S 2.9 4.1----30.40- 39.0 49.1----
2024-04-18 01:36 am-------30.41- 39.4 49.1----
2024-04-18 01:30 am-------30.41- 39.9 49.1----
2024-04-18 01:24 amWSW 1.9 2.9----30.41- 41.5 49.1----
2024-04-18 01:18 amWNW 1.9 5.1----30.41- 41.7 49.1----
2024-04-18 01:12 am W 1.0 1.9----30.41- 41.9 49.1----
2024-04-18 01:06 amWSW 2.9 5.1----30.41- 41.0 49.1----
2024-04-18 01:00 am- 0.0 1.9----30.41-0.01 40.5 49.1----
2024-04-18 12:54 am SW 1.9 4.1----30.41- 39.7 49.1----
2024-04-18 12:48 am- 0.0 1.9----30.42- 39.2 49.1----
2024-04-18 12:42 am- 0.0 1.0----30.42- 39.9 49.1----
2024-04-18 12:36 am-------30.42- 39.6 49.1----
2024-04-18 12:30 am-------30.42- 39.6 49.1----
2024-04-18 12:24 am S 1.9 5.1----30.42- 39.7 49.1----
2024-04-18 12:18 amSSW 4.1 5.1----30.42- 40.1 49.1----
2024-04-18 12:12 am S 1.9 4.1----30.42- 40.6 49.1----
2024-04-18 12:06 amWSW 2.9 5.1----30.42- 41.5 48.9----
2024-04-18 12:00 am SW 2.9 4.1----30.42+0.00 41.0 48.9----
2024-04-17 11:54 pm S 4.1 4.1----30.42- 41.4 48.9----
2024-04-17 11:48 pm S 2.9 4.1----30.43- 41.2 48.9----
2024-04-17 11:42 pmSSW 2.9 4.1----30.43- 41.4 48.9----
2024-04-17 11:36 pm-------30.43- 41.9 48.9----
2024-04-17 11:30 pm-------30.43- 41.9 48.9----
2024-04-17 11:24 pmSSE 2.9 5.1----30.42- 42.8 48.9----
2024-04-17 11:18 pm S 5.1 7.0----30.42- 43.3 48.9----
2024-04-17 11:12 pmSSW 4.1 6.0----30.42- 43.3 48.9----
2024-04-17 11:06 pmSSW 5.1 6.0----30.42- 43.7 48.9----
2024-04-17 11:00 pm SW 2.9 5.1----30.42+0.00 44.8 48.9----
2024-04-17 10:54 pm W 2.9 5.1----30.43- 44.4 48.9----